EW6143 Weather Reports


time (UTC)temp
F
wind
direction
speed
knots
gust
knots
rain 1hr
in
rain 24hr
in
rain mn
in
humidity
%
barometer
mb
20240418170013 75 342 6.1 10.4 0.00 0.00 0.00 84 1013.2
20240418164522 75 294 3.5 9.6 0.00 0.00 0.00 84 1013.3
20240418163015 75 329 5.2 9.6 0.00 0.00 0.00 83 1013.4
20240418161516 75 331 4.3 10.4 0.00 0.00 0.00 83 1013.6
20240418160015 75 307 3.5 9.6 0.00 0.00 0.00 83 1013.5
20240418154513 75 26 1.7 8.7 0.00 0.00 0.00 83 1013.6
20240418153015 75 309 3.5 8.7 0.00 0.00 0.00 83 1013.4
20240418151515 74 352 3.5 8.7 0.00 0.00 0.00 83 1013.4
20240418150015 74 293 3.5 8.7 0.00 0.00 0.00 84 1013.3
20240418144512 73 302 1.7 7.8 0.00 0.00 0.00 85 1013.4
20240418143013 72 346 1.7 5.2 0.00 0.00 0.00 86 1013.4
20240418141527 72 5 2.6 9.6 0.00 0.00 0.00 86 1013.4
20240418140016 72 310 2.6 9.6 0.00 0.00 0.00 87 1013.0
20240418134521 71 295 4.3 9.6 0.00 0.00 0.00 87 1012.7
20240418133012 71 303 1.7 7.8 0.00 0.00 0.00 88 1012.8
20240418131530 70 355 3.5 7.8 0.00 0.00 0.00 88 1012.5
20240418130011 70 324 3.5 9.6 0.00 0.00 0.00 88 1012.3
20240418124519 69 325 3.5 7.8 0.00 0.00 0.00 89 1012.1
20240418123016 69 317 4.3 9.6 0.00 0.00 0.00 89 1012.0
20240418121515 69 289 4.3 8.7 0.00 0.00 0.00 89 1011.8
20240418120014 69 277 2.6 7.0 0.00 0.00 0.00 89 1011.8
20240418114513 69 355 3.5 7.0 0.00 0.00 0.00 89 1011.8
20240418113018 69 355 3.5 8.7 0.00 0.00 0.00 89 1011.9
20240418111538 69 313 2.6 7.8 0.00 0.00 0.00 88 1011.8
20240418110022 69 280 2.6 8.7 0.00 0.00 0.00 87 1011.7
20240418104515 69 335 3.5 9.6 0.00 0.00 0.00 87 1011.6
20240418103018 70 313 3.5 7.8 0.00 0.00 0.00 86 1011.7
20240418101513 70 323 4.3 9.6 0.00 0.00 0.00 86 1011.9
20240418100014 70 300 3.5 9.6 0.00 0.00 0.00 87 1011.9
20240418094515 70 337 2.6 7.0 0.00 0.00 0.00 86 1011.8
20240418093012 70 287 1.7 7.0 0.00 0.00 0.00 86 1011.8
20240418091515 70 274 3.5 7.8 0.00 0.00 0.00 85 1012.0
20240418090025 70 316 4.3 7.8 0.00 0.00 0.00 85 1011.9
20240418084523 70 267 3.5 8.7 0.00 0.00 0.00 85 1012.0
20240418083013 71 294 2.6 7.0 0.00 0.00 0.00 85 1012.2
20240418081522 71 322 2.6 7.8 0.00 0.00 0.00 85 1012.3
20240418080014 71 270 2.6 9.6 0.00 0.00 0.00 85 1012.5
20240418074518 72 327 3.5 7.8 0.00 0.00 0.00 85 1012.6
20240418073015 72 293 2.6 7.0 0.00 0.00 0.00 85 1012.7
20240418071526 72 316 3.5 7.0 0.00 0.00 0.00 85 1012.6
20240418070017 72 275 1.7 6.1 0.00 0.00 0.00 84 1012.7
20240418064525 72 265 1.7 7.0 0.00 0.00 0.00 84 1012.6
20240418063013 73 306 2.6 7.8 0.00 0.00 0.00 84 1012.7
20240418061522 73 342 3.5 7.8 0.00 0.00 0.00 84 1012.6
20240418060017 73 287 3.5 7.8 0.00 0.00 0.00 85 1012.8
20240418054514 73 298 2.6 7.8 0.00 0.00 0.00 85 1013.1
20240418053015 73 333 4.3 8.7 0.00 0.00 0.00 84 1013.2
20240418051514 73 288 3.5 9.6 0.00 0.00 0.00 84 1013.3
20240418050013 74 336 2.6 8.7 0.00 0.00 0.00 84 1013.0
20240418044515 74 300 4.3 8.7 0.00 0.00 0.00 83 1013.0
20240418043016 74 337 3.5 9.6 0.00 0.00 0.00 83 1013.2
20240418041513 74 271 3.5 10.4 0.00 0.00 0.00 83 1013.3
20240418040021 75 323 3.5 10.4 0.00 0.00 0.00 83 1013.2
20240418034513 75 288 3.5 9.6 0.00 0.00 0.00 83 1013.2
20240418033016 75 340 3.5 8.7 0.00 0.00 0.00 83 1013.1
20240418031515 75 10 2.6 10.4 0.00 0.00 0.00 83 1013.0
20240418030015 75 315 2.6 8.7 0.00 0.00 0.00 82 1012.7
20240418024518 76 304 4.3 12.2 0.00 0.00 0.00 82 1012.7
20240418023012 76 311 5.2 10.4 0.00 0.00 0.00 82 1012.2
20240418021517 76 284 3.5 9.6 0.00 0.00 0.00 81 1012.0
20240418020016 77 288 2.6 7.8 0.00 0.00 0.00 79 1011.8
20240418014515 77 277 5.2 11.3 0.00 0.00 0.00 78 1011.9
20240418013014 78 267 3.5 9.6 0.00 0.00 0.00 77 1012.0
20240418011513 78 324 4.3 9.6 0.00 0.00 0.00 76 1011.8
20240418010012 78 279 5.2 9.6 0.00 0.00 0.00 74 1011.8
20240418004517 79 279 3.5 7.8 0.00 0.00 0.00 73 1011.9
20240418003014 79 277 3.5 7.8 0.00 0.00 0.00 71 1012.0
20240418001512 79 315 1.7 5.2 0.00 0.00 0.00 72 1012.4
20240418000021 79 297 3.5 7.0 0.00 0.00 0.00 71 1012.2
20240417234518 80 300 2.6 8.7 0.00 0.00 0.00 70 1012.3
20240417233015 80 304 2.6 7.0 0.00 0.00 0.00 70 1012.4
20240417231516 81 316 1.7 8.7 0.00 0.00 0.00 69 1012.4
20240417230022 81 288 2.6 7.8 0.00 0.00 0.00 68 1012.3
20240417224513 81 312 3.5 10.4 0.00 0.00 0.00 67 1012.5
20240417223016 81 334 4.3 13.0 0.00 0.00 0.00 66 1012.3
20240417221513 82 340 4.3 10.4 0.00 0.00 0.00 65 1012.1
20240417220015 82 278 5.2 12.2 0.00 0.00 0.00 62 1012.1
20240417214516 83 293 6.1 14.8 0.00 0.00 0.00 62 1011.9
20240417213014 84 269 7.8 13.0 0.00 0.00 0.00 59 1011.9
20240417211514 83 292 4.3 13.9 0.00 0.00 0.00 64 1012.0
20240417210018 83 290 4.3 9.6 0.00 0.00 0.00 65 1012.2
20240417204532 83 332 3.5 11.3 0.00 0.00 0.00 67 1012.4
20240417203016 82 288 4.3 15.6 0.00 0.00 0.00 68 1012.7
20240417201523 83 322 7.0 13.9 0.00 0.00 0.00 68 1012.8
20240417200016 83 295 6.1 13.9 0.00 0.00 0.00 68 1012.7
20240417194512 83 294 6.1 13.0 0.00 0.01 0.00 67 1013.0
20240417193023 84 283 7.0 11.3 0.00 0.01 0.00 66 1013.4
20240417191517 83 275 7.8 15.6 0.00 0.01 0.00 67 1013.6
20240417190025 83 340 6.1 16.5 0.00 0.01 0.00 69 1013.7
20240417184520 82 275 6.1 11.3 0.00 0.01 0.00 69 1014.0
20240417183013 82 315 4.3 12.2 0.00 0.01 0.00 71 1014.0
20240417181520 81 323 5.2 9.6 0.00 0.01 0.00 70 1014.4
20240417180016 82 288 6.1 11.3 0.00 0.01 0.00 71 1014.4
20240417174513 82 299 5.2 10.4 0.00 0.01 0.00 70 1014.5
20240417173013 81 297 5.2 10.4 0.00 0.01 0.00 73 1014.5
20240417171514 81 315 4.3 8.7 0.00 0.01 0.00 73 1014.9